Regional Weather Roundup
Issued by NWS

Home | Current Version | Previous Version | Graphics & Text | Print | Product List | Glossary On
Versions: 1 2 3 4 5 6 7 8 9 10 11 12 13 14 15 16 17 18 19 20 21 22 23 24 25 26 27 28 29 30 31 32 33 34 35 36 37 38 39 40 41 42 43 44 45 46 47 48 49 50
000
ASUS43 KDMX 242106
RWRIA

WEATHER ROUNDUP FOR IOWA
NATIONAL WEATHER SERVICE DES MOINES IA
400 PM CDT TUE APR 24 2018

NOTE: "FAIR" INDICATES FEW OR NO CLOUDS BELOW 12,000 FEET WITH NO
SIGNIFICANT WEATHER AND/OR OBSTRUCTIONS TO VISIBILITY.

* - THESE STATIONS ARE NOT NWS STATIONS...THUS NOT UNDER NWS
QUALITY CONTROL.  THEY ALSO DO NOT REPORT WEATHER SUCH
AS PRECIPITATION OR FOG.

IAZ001>003-012>014-020>022-031>034-043>046-242200-
   NORTHWEST IOWA

CITY           SKY/WX    TMP DP  RH WIND       PRES   REMARKS
CARROLL *      PTSUNNY   93  68  43 NW14G22   30.09S HX  97
CHEROKEE *     CLOUDY    60  42  52 NE16      30.16S
DENISON *      CLOUDY    70  37  30 NW13      30.11S
LE MARS *      CLOUDY    59  43  55 N20G29    30.18S
ORANGE CITY *  MOSUNNY   54  45  71 N13G24    30.21R
SHELDON *      CLOUDY    50  45  81 N16       30.20R HAZE
SIOUX CITY     CLOUDY    61  41  47 N15       30.17R
SPENCER        CLOUDY    56  40  55 N20G29    30.18R
STORM LAKE *   CLOUDY    61  43  51 N15G21    30.14R
$$

IAZ055>058-069>071-079>083-090>094-242200-
   SOUTHWEST IOWA

CITY           SKY/WX    TMP DP  RH WIND       PRES   REMARKS
ATLANTIC *     CLOUDY    73  34  23 NW9G16    30.07S
AUDUBON *      MOSUNNY   70  36  28 N13       30.09F
CLARINDA *     CLOUDY    75  32  20 NW15      30.08F
COUNCIL BLFS * PTSUNNY   68  45  42 NW17G29   30.10R
CRESTON *      CLOUDY    72  36  26 N8G15     30.07F
HARLAN  *      CLOUDY    72  34  25 NW16      30.11F
LAMONI         MOSUNNY   74  36  25 N13G18    30.05F
RED OAK *      CLOUDY    75  32  20 NW9       30.07F
SHENANDOAH *   PTSUNNY   75  32  20 N14       30.07F
$$

IAZ047>049-059>061-072>074-084-242200-
   CENTRAL IOWA

CITY           SKY/WX    TMP DP  RH WIND       PRES   REMARKS
AMES           MOSUNNY   74  41  30 N15G25    30.07S
ANKENY *       PTSUNNY   73  37  27 N15       30.06F
BOONE *        MOSUNNY   72  41  33 NW16      30.07F
CHARITON *     MOSUNNY   73  36  25 N14G22    30.04F
DES MOINES     PTSUNNY   75  36  24 NW12      30.05F
GRINNELL*      MOSUNNY   74  30  20 N14       30.05S
KNOXVILLE *    MOSUNNY   73  30  20 N13       30.03F
MARSHALLTOWN   CLOUDY    70  40  33 N12G21    30.04F
NEWTON *       CLOUDY    73  32  21 VRB7G17   30.04S
PELLA *        MOSUNNY   75  30  18 NW13G21   30.04F
PERRY *        FAIR      69  32  24 N17       30.08S
$$

IAZ004>006-015-016-023>025-035-036-242200-
   NORTH CENTRAL IOWA

CITY           SKY/WX    TMP DP  RH WIND       PRES   REMARKS
ALGONA *       MOSUNNY   61  46  59 N16G24    30.14S
CLARION *      SUNNY     64  45  48 N18G26    30.11R
ESTHERVILLE    CLOUDY    53  43  68 N21       30.17R
FORT DODGE *   SUNNY     67  47  48 N14G20    30.11S
MASON CITY     CLOUDY    66  47  50 N17       30.10S
FOREST CITY *  FAIR      66  46  48 NW17      30.11F
WEBSTER CITY * MOSUNNY   68  41  37 N17       30.08S
IOWA FALLS *   FAIR      69  42  37 NW21      30.09S
$$

IAZ007>011-017>019-026>030-037>042-050>054-066-242200-
   NORTHEAST IOWA

CITY           SKY/WX    TMP DP  RH WIND       PRES   REMARKS
CEDAR RAPIDS   FAIR      76  32  20 N9        30.00F
CHARLES CITY * PTSUNNY   72  43  35 N14       30.07S
CLINTON *        N/A     74  30  19 NW10      29.99F
DECORAH *      PTSUNNY   70  37  30 N15       30.03S
DUBUQUE        FAIR      72  30  21 NE14G20   30.00F
MONTICELLO *   FAIR      75  30  19 NW8G16    30.00F
OELWEIN *      FAIR      72  37  28 N9G20     30.04S
WATERLOO       FAIR      72  39  30 N12G25    30.04S
$$

IAZ064-065-067-068-078-242200-
   EAST CENTRAL IOWA

CITY           SKY/WX    TMP DP  RH WIND       PRES   REMARKS
DAVENPORT      FAIR      75  27  17 N14G20    30.00F
IOWA CITY      FAIR      75  31  19 NW8       30.01F
MT. PLEASANT * MOSUNNY   72  25  17 N12       30.00F
MUSCATINE *    FAIR      75  25  15 N16       29.99F
QUAD CITIES    FAIR      76  27  16 NW8       29.97F
$$

IAZ062-063-075>077-085>089-095>099-242200-
   SOUTHEAST IOWA

CITY           SKY/WX    TMP DP  RH WIND       PRES   REMARKS
BURLINGTON     SUNNY     74  24  15 N13       29.99F
FAIRFIELD *    MOSUNNY   73  25  16 NW8G18    30.01F
FORT MADISON * SUNNY     75  30  19 N12       30.00F
KEOKUK *       SUNNY     75  32  20 N10       29.99F
OSKALOOSA *    FAIR      74  26  16 N7G22     30.03F
CENTERVILLE *  FAIR      75  28  17 NW13G20   30.05F
OTTUMWA        MOSUNNY   75  32  20 NW16G22   30.02F
WASHINGTON *   MOSUNNY   73  28  19 N15G21    30.02F
$$

ABBREVIATIONS USED IN REMARKS
   TC - TEMPERATURES IN CELSIUS
  WCI - WIND CHILL INDEX
   HX - HEAT INDEX
  VSB - VISIBILITY
$$





USA.gov is the U.S. government's official web portal to all federal, state and local government web resources and services.